Regional Weather Roundup
Issued by NWS

Home | Current Version | Previous Version | Graphics & Text | Print | Product List | Glossary Off
Versions: 1 2 3 4 5 6 7 8 9 10 11 12 13 14 15 16 17 18 19 20 21 22 23 24 25 26 27 28 29 30 31 32 33 34 35 36 37 38 39 40 41 42 43 44 45 46 47 48 49 50

000
ASUS43 KLSX 271459
RWRMO

WEATHER SUMMARY FOR MISSOURI
NATIONAL WEATHER SERVICE SPRINGFIELD MO
900 AM CST FRI FEB 27 2015

NOTE: "FAIR" INDICATES FEW OR NO CLOUDS BELOW 12,000 FEET WITH NO
       SIGNIFICANT WEATHER AND/OR OBSTRUCTIONS TO VISIBILITY.
       CURRENT SKY AND/OR WEATHER CONDITIONS ARE NOT AVAILABLE FOR
       CHILLICOTHE AND FARMINGTON.

MOZ001>031-035>038-043-044-053-054-271600-
...NORTHERN AND WESTERN MISSOURI...

CITY           SKY/WX    TMP DP  RH WIND       PRES   REMARKS
KANSAS CTY INT PTSUNNY    7  -1  70 CALM      30.64R
KANSAS C DTWN  SUNNY     10  -2  58 CALM      30.68R
LEE`S SUMMIT   SUNNY      7  -3  64 N5        30.65R WCI  -2
ST JOSEPH      SUNNY      6   0  76 N3        30.67R
CHILLICOTHE      N/A      6  -2  69 CALM      30.68R
KIRKSVILLE     SUNNY      4  -3  73 N3        30.65R

$$
MOZ066>068-077>081-088>096-101>105-271600-
...SOUTHWEST MISSOURI...

CITY           SKY/WX    TMP DP  RH WIND       PRES   REMARKS
SPRINGFIELD    SUNNY     11   1  64 NE9       30.55R WCI  -2
JOPLIN         CLOUDY    11   1  64 NE8       30.61R WCI  -1

$$
MOZ032>034-039>042-045>050-055>058-069>072-271600-
...CENTRAL MISSOURI...

CITY           SKY/WX    TMP DP  RH WIND       PRES   REMARKS
COLUMBIA       SUNNY      8  -3  61 N6        30.65S WCI  -2
JEFFERSON CITY SUNNY      8  -4  58 VRB3      30.69F
ROLLA          SUNNY      7  -4  60 N6        30.59S WCI  -3
SEDALIA        SUNNY      8  -1  66 CALM      30.66R
OSAGE BEACH    SUNNY      9   0  66 E6        30.63R WCI  -1

$$
MOZ051-052-059>065-271600-
...EAST CENTRAL MISSOURI...

CITY           SKY/WX    TMP DP  RH WIND       PRES   REMARKS
ST LOUIS INTL  MOSUNNY    8  -3  61 N8        30.69R WCI  -4
SPIRIT OF STL  SUNNY      8  -3  61 CALM      30.69R
ST CHARLES     SUNNY      5  -3  69 W6        30.70R WCI  -6

$$
MOZ072>076-082>087-097>100-106>115-271600-
...SOUTH CENTRAL AND SOUTHEAST MISSOURI...

CITY           SKY/WX    TMP DP  RH WIND       PRES   REMARKS
CAPE GIRARDEAU SUNNY     13   2  61 N13       30.67R WCI  -2
FARMINGTON     SUNNY      7  -2  66 N10       30.63S WCI  -8
POPLAR BLUFF   SUNNY     13   0  56 NE10      30.65R WCI   0
WEST PLAINS    SUNNY     11   0  61 NE8       30.57S WCI  -1

$$



USA.gov is the U.S. government's official web portal to all federal, state and local government web resources and services.